Wetbulb
72.70 75.12 75.51 76.10 76.22 76.59 77.11 77.05 77.15 77.19 77.32 77.23 76.94 76.77 77.26 77.16 77.00 77.44 77.27 77.63 76.97 77.18 77.16 76.99 77.10 77.12 76.93 76.24 76.35 76.26 76.69 76.41 76.38 76.51 76.40 75.97 76.72 76.17 76.35 76.48 76.04 75.19 75.66
74.04 75.73 76.45 76.34 76.71 77.05 76.96 76.98 77.14 76.98 77.14 76.89 77.04 77.54 77.77 77.54 77.21 77.25 77.52 77.29 77.22 77.17 76.77 76.35 76.84 76.73 76.37 76.32 76.37 76.72 76.76 76.59 76.35 76.44 76.32 75.78 75.74 75.85 75.58 76.23 75.54 75.97 75.87
74.16 75.98 76.09 76.94 77.05 77.14 77.13 76.72 77.09 77.18 77.32 77.35 77.22 77.34 77.27 77.26 77.34 76.99 77.17 77.29 77.14 77.25 76.90 76.83 76.86 76.51 76.37 76.31 76.50 76.47 76.40 76.19 76.23 76.14 75.24 75.82 75.00 75.26 75.61 75.49 75.71 75.97 76.06
74.93 76.20 76.76 76.76 77.16 76.68 76.78 77.05 77.21 77.03 77.29 77.29 77.22 77.33 77.04 77.09 76.97 77.03 76.70 76.81 76.53 76.56 76.64 76.31 76.26 76.37 76.25 76.45 76.29 76.35 76.04 75.91 75.57 74.72 74.54 74.53 74.19 75.36 75.37 75.47 75.64 75.55 75.76
75.25 76.34 76.65 76.78 76.84 76.63 76.51 76.79 76.82 77.01 77.06 77.05 77.29 77.08 76.89 77.10 77.05 77.09 76.69 76.33 76.19 76.30 76.34 76.12 76.01 75.85 75.70 75.45 75.31 75.47 75.16 75.07 75.35 75.61 74.46 74.68 75.12 75.21 75.00 74.68 74.85 75.18 74.24
75.39 76.44 76.65 76.60 76.68 76.89 76.55 75.40 76.83 77.21 76.98 76.87 76.85 76.97 76.76 76.90 76.63 75.92 75.68 75.43 75.04 75.07 75.37 75.57 75.63 75.54 75.18 75.37 76.10 75.80 76.03 75.73 76.21 76.26 75.28 73.90 74.57 74.68 74.77 74.97 74.52 74.62 74.39
75.07 76.16 76.24 76.84 76.25 75.27 76.17 75.48 74.27 76.37 76.75 76.48 76.62 76.79 77.06 76.27 75.89 75.70 75.18 74.93 75.07 75.45 75.54 75.07 74.98 75.68 75.62 75.64 75.48 75.67 75.72 75.49 75.12 76.55 76.03 75.31 74.72 75.07 75.01 75.23 74.69 74.15 74.12
74.51 75.51 76.29 76.62 75.82 75.43 75.82 76.71 74.54 74.95 75.95 75.96 76.39 76.52 76.34 75.96 75.50 75.23 74.88 74.44 74.68 75.34 75.48 75.46 75.40 75.43 75.32 75.37 75.09 75.40 75.70 74.12 74.60 75.22 75.69 76.11 74.38 75.36 75.58 74.96 74.88 73.70 73.82
75.51 75.49 76.41 74.55 75.41 75.73 76.64 77.25 75.54 75.01 75.31 75.65 75.76 75.98 75.65 75.14 74.93 74.82 74.68 74.38 74.63 74.38 74.63 74.90 75.01 74.98 74.79 74.79 75.01 75.15 75.29 75.65 75.78 75.44 73.66 74.60 73.73 75.05 74.86 74.69 74.80 73.86 73.72
75.13 75.03 74.86 75.40 76.51 76.71 75.38 76.00 76.54 75.61 75.17 75.47 75.58 75.47 75.28 74.85 74.71 74.71 74.66 75.32 74.71 74.48 74.36 74.44 74.52 75.07 75.54 75.87 76.25 76.70 77.08 76.18 75.64 75.49 75.24 73.59 74.24 74.53 74.27 74.83 74.72 74.31 74.56
73.94 73.93 74.07 74.71 75.78 76.06 75.70 75.01 75.32 75.31 75.51 75.43 75.60 75.65 76.04 75.81 76.06 75.10 74.69 74.95 75.65 75.37 74.83 74.97 75.60 76.50 74.48 74.68 75.39 74.71 76.15 76.53 76.54 76.11 75.27 74.78 75.25 75.33 74.79 74.53 74.32 72.44 72.44
71.58 72.56 73.95 73.99 74.04 74.85 74.66 76.25 76.55 76.17 76.42 76.51 76.78 77.47 77.98 77.78 77.70 76.29 76.03 76.08 76.74 76.48 75.87 77.01 77.09 77.78 75.33 75.37 76.03 74.21 74.78 74.97 76.11 75.88 74.92 74.81 75.46 75.08 75.64 75.96 74.29 74.22 74.73
71.73 72.32 73.69 74.11 74.46 74.76 75.24 76.38 76.78 77.08 77.17 77.53 77.42 77.81 77.94 77.76 77.98 77.76 78.81 78.54 78.56 78.10 78.27 75.98 78.24 78.01 75.39 75.38 75.08 75.06 74.73 74.84 74.97 74.69 73.55 73.09 74.80 75.31 74.38 74.79 71.94 71.32 72.39
71.21 71.40 72.64 73.78 74.29 74.81 74.96 75.56 76.11 76.59 76.93 75.79 77.14 77.53 77.27 76.85 78.06 77.66 77.31 78.07 78.58 78.46 77.55 76.23 77.41 78.17 76.64 74.52 73.58 74.37 74.85 74.52 74.44 75.41 73.59 71.61 74.62 74.88 75.99 74.70 74.93 73.95 73.03
70.42 71.33 72.34 73.72 74.32 74.70 75.48 75.07 76.11 76.82 77.03 76.42 74.59 75.32 75.89 76.81 76.92 77.89 78.10 78.07 78.14 75.94 74.99 76.25 77.76 76.44 74.13 74.27 74.54 74.29 73.77 73.87 74.16 74.96 75.52 73.64 73.88 75.38 76.08 77.29 75.65 75.43 74.39
70.96 71.02 72.51 73.28 74.12 74.67 75.24 75.75 75.13 75.94 76.97 76.08 74.65 73.46 73.38 75.42 77.45 77.41 78.00 77.98 77.97 77.98 78.01 77.49 76.20 74.46 75.00 73.93 73.60 74.00 75.12 75.09 75.37 75.45 76.22 76.38 74.79 76.10 76.75 76.71 77.50 77.81 76.78
71.27 71.15 72.02 73.09 73.69 74.04 75.13 75.71 75.93 75.74 75.89 76.15 74.68 76.68 73.42 76.01 77.51 78.02 77.28 76.76 76.97 78.03 77.23 76.32 75.15 75.60 74.55 74.69 74.82 75.14 75.51 75.65 76.01 76.04 76.43 76.26 76.82 73.69 74.41 75.92 76.98 77.64 77.81
71.68 71.87 72.58 72.28 72.87 73.86 74.78 75.79 75.58 75.91 75.48 75.32 74.04 75.67 77.06 75.35 76.99 77.62 76.90 77.12 76.90 77.10 76.29 75.56 75.54 75.57 76.30 75.95 75.03 75.32 75.71 75.98 76.46 76.32 76.62 76.49 76.54 76.56 75.40 73.76 74.97 77.34 77.71
73.42 72.99 72.90 73.38 72.96 74.16 75.79 75.27 75.48 76.05 75.58 76.32 76.27 74.94 77.26 75.54 76.85 76.47 75.49 77.10 77.57 77.19 76.03 75.66 76.63 76.04 75.31 75.18 74.26 74.47 75.45 75.29 75.59 75.53 76.34 76.38 77.12 76.84 76.62 76.56 74.15 74.68 75.85
73.87 74.02 73.73 73.70 74.45 75.51 75.18 74.57 75.29 76.06 76.03 76.55 76.14 75.73 77.08 77.31 76.95 76.40 76.71 76.94 76.84 76.53 76.18 75.79 76.29 76.40 75.65 75.56 74.21 74.15 75.48 75.59 75.74 75.50 75.44 75.88 76.40 76.52 76.70 76.74 77.30 76.97 74.29
73.49 73.67 73.84 73.13 74.60 74.74 74.18 73.72 74.65 74.44 74.99 76.51 77.15 76.48 76.46 76.91 76.93 76.89 76.11 77.31 77.24 76.37 76.60 76.59 76.09 75.98 75.03 75.59 74.66 73.81 74.13 74.77 74.69 75.41 75.80 75.64 75.67 75.80 76.53 76.53 76.68 76.61 77.02
72.68 73.50 73.83 74.02 74.18 75.06 74.90 75.23 75.64 75.70 76.38 76.54 76.62 76.90 76.40 76.09 75.99 76.72 76.84 76.87 76.32 77.00 76.91 76.46 76.57 75.42 74.98 76.00 73.15 72.40 69.44 71.43 74.93 74.43 75.00 74.72 75.02 75.65 75.81 76.31 77.22 77.19 76.83
72.33 72.96 73.22 74.39 74.24 75.35 75.56 75.29 75.76 76.14 76.17 75.32 75.19 75.81 75.42 75.25 74.88 74.60 73.80 74.53 74.65 75.33 74.33 74.80 75.29 75.31 74.44 76.14 75.31 72.93 68.42 67.12 70.34 73.81 74.35 74.91 75.53 74.55 75.00 76.31 76.95 77.26 77.76
71.92 73.43 73.86 74.32 74.24 74.70 75.83 74.84 75.09 73.35 75.76 76.61 76.51 74.58 74.84 75.17 74.28 73.77 74.28 75.25 75.04 74.13 73.60 73.51 74.02 74.86 74.96 72.46 74.62 73.22 73.88 72.84 68.68 68.13 72.55 73.39 73.18 71.97 72.46 73.85 72.96 76.56 77.63
72.30 72.82 73.51 74.41 74.59 74.54 74.66 75.09 74.51 74.57 76.85 75.68 73.95 73.19 73.80 73.17 72.95 72.66 72.58 72.24 71.83 71.71 71.61 71.81 70.95 71.13 71.16 70.72 69.27 69.80 70.77 71.87 71.21 68.22 65.04 66.60 67.93 70.97 71.90 69.12 74.17 73.03 76.90
72.52 72.99 73.23 73.57 74.57 74.41 74.43 74.66 74.94 74.93 75.05 72.64 71.56 71.45 71.03 70.01 68.56 68.77 69.71 69.31 69.15 70.11 68.98 67.61 67.65 67.57 67.24 66.86 65.57 65.42 65.30 65.64 65.15 65.33 63.46 63.28 63.43 65.99 66.78 70.28 68.91 73.02 73.34
MSLP
1017.36 1017.31 1017.39 1017.39 1017.40 1017.38 1017.37 1017.41 1017.44 1017.45 1017.49 1017.55 1017.65 1017.67 1017.64 1017.59 1017.73 1017.70 1017.68 1017.68 1017.70 1017.79 1017.72 1017.69 1017.67 1017.80 1017.94 1018.10 1018.21 1018.29 1018.45 1018.46 1018.45 1018.53 1018.60 1018.53 1018.72 1018.73 1018.75 1018.78 1018.66 1018.52 1019.01
1017.02 1017.31 1017.46 1017.54 1017.57 1017.51 1017.57 1017.63 1017.58 1017.64 1017.67 1017.82 1017.88 1017.85 1017.81 1017.89 1017.95 1018.01 1017.91 1018.02 1017.97 1017.98 1017.90 1017.96 1018.04 1018.10 1018.25 1018.40 1018.51 1018.52 1018.65 1018.65 1018.62 1018.67 1018.72 1018.80 1018.89 1018.95 1018.95 1019.08 1018.99 1019.02 1019.20
1017.05 1017.33 1017.47 1017.66 1017.60 1017.62 1017.75 1017.70 1017.78 1017.78 1017.82 1017.94 1017.98 1017.99 1018.10 1018.12 1018.18 1018.29 1018.22 1018.18 1018.23 1018.23 1018.20 1018.23 1018.23 1018.36 1018.53 1018.63 1018.71 1018.81 1018.86 1018.94 1019.00 1019.07 1018.93 1018.37 1018.59 1019.23 1019.29 1019.27 1019.23 1019.18 1019.35
1017.30 1017.47 1017.55 1017.77 1017.72 1017.74 1017.79 1017.85 1017.95 1018.04 1018.08 1018.10 1018.16 1018.22 1018.33 1018.34 1018.47 1018.46 1018.47 1018.53 1018.53 1018.47 1018.43 1018.43 1018.50 1018.57 1018.77 1018.97 1019.00 1019.08 1019.10 1019.11 1019.19 1019.21 1018.81 1018.75 1018.80 1019.44 1019.64 1019.57 1019.50 1019.52 1019.61
1017.47 1017.59 1017.71 1017.84 1017.85 1017.91 1018.00 1018.11 1018.26 1018.24 1018.32 1018.33 1018.34 1018.41 1018.51 1018.50 1018.60 1018.64 1018.79 1018.83 1018.76 1018.64 1018.66 1018.65 1018.68 1018.83 1018.94 1019.08 1019.24 1019.25 1019.23 1019.25 1019.24 1018.93 1019.20 1019.27 1019.00 1019.61 1019.89 1020.15 1020.15 1019.98 1019.85
1017.60 1017.68 1017.87 1017.92 1017.98 1018.09 1018.26 1018.37 1018.41 1018.42 1018.44 1018.63 1018.58 1018.73 1018.72 1018.77 1018.84 1018.91 1019.04 1019.01 1018.90 1018.91 1018.93 1018.85 1018.88 1018.96 1019.03 1019.11 1019.16 1019.07 1018.95 1018.92 1019.03 1018.70 1019.17 1019.39 1019.29 1019.87 1019.97 1020.35 1020.32 1020.26 1020.19
1017.65 1017.70 1017.88 1018.03 1018.15 1018.31 1018.40 1018.47 1018.58 1018.59 1018.72 1018.84 1018.89 1018.95 1018.90 1018.97 1019.03 1019.17 1019.22 1019.13 1019.07 1019.13 1018.94 1018.95 1019.02 1019.13 1019.12 1019.17 1019.19 1019.08 1018.96 1018.87 1018.59 1018.76 1019.07 1019.21 1019.42 1019.99 1020.04 1020.08 1020.35 1020.42 1020.41
1017.57 1017.79 1017.87 1018.25 1018.39 1018.47 1018.53 1018.57 1018.68 1018.77 1018.81 1018.89 1018.97 1018.98 1019.08 1019.15 1019.22 1019.28 1019.31 1019.22 1019.23 1019.15 1019.01 1019.04 1019.03 1019.14 1019.21 1019.17 1019.14 1019.07 1019.03 1019.04 1018.71 1018.86 1019.27 1019.62 1020.19 1020.16 1019.88 1019.95 1020.38 1020.49 1020.48
1017.67 1017.78 1018.03 1018.21 1018.47 1018.58 1018.60 1018.62 1018.74 1018.86 1018.95 1019.00 1019.04 1019.18 1019.29 1019.31 1019.37 1019.42 1019.42 1019.30 1019.22 1019.08 1019.10 1019.13 1019.12 1019.14 1019.13 1019.09 1018.99 1018.97 1019.00 1019.06 1018.68 1018.72 1019.18 1019.56 1020.03 1020.00 1019.80 1019.99 1020.24 1020.55 1020.64
1017.88 1018.03 1018.28 1018.51 1018.48 1018.55 1018.46 1018.77 1018.85 1019.02 1019.11 1019.12 1019.24 1019.25 1019.27 1019.37 1019.43 1019.44 1019.40 1019.18 1019.10 1018.99 1018.99 1019.06 1019.14 1019.19 1019.17 1019.18 1019.13 1019.07 1019.01 1018.98 1018.34 1018.74 1019.16 1019.43 1019.70 1019.54 1019.69 1020.12 1020.61 1020.60 1020.50
1018.14 1018.28 1018.40 1018.50 1018.73 1018.79 1018.74 1018.80 1019.04 1019.15 1019.07 1019.13 1019.30 1019.23 1019.35 1019.10 1019.13 1019.11 1019.27 1019.24 1019.09 1018.98 1018.99 1019.05 1019.13 1019.21 1019.27 1019.26 1019.31 1019.27 1019.15 1018.42 1018.44 1018.70 1018.92 1019.63 1019.36 1019.10 1019.46 1019.83 1020.30 1020.61 1020.77
1017.93 1018.21 1018.34 1018.50 1018.68 1018.78 1018.71 1018.96 1019.06 1018.99 1018.85 1019.09 1019.18 1019.23 1019.21 1019.18 1019.06 1018.97 1019.17 1019.24 1019.16 1019.06 1019.06 1019.11 1019.21 1019.26 1019.21 1018.74 1018.68 1018.90 1018.58 1018.47 1018.39 1018.58 1018.93 1019.50 1019.38 1019.49 1019.37 1019.92 1019.81 1020.36 1020.40
1017.88 1018.08 1018.34 1018.55 1018.81 1018.72 1018.93 1019.01 1019.09 1019.08 1019.05 1019.18 1019.37 1019.48 1019.35 1019.07 1018.90 1018.71 1018.70 1018.64 1018.70 1018.86 1018.67 1018.83 1018.64 1018.63 1018.95 1019.03 1018.85 1018.75 1018.72 1018.44 1018.24 1018.39 1019.05 1019.62 1019.39 1019.40 1019.57 1019.76 1019.93 1020.30 1019.77
1017.81 1018.02 1018.29 1018.51 1018.79 1018.96 1019.07 1019.02 1019.05 1019.08 1019.14 1019.10 1019.23 1019.46 1019.36 1019.08 1018.90 1018.73 1018.52 1018.65 1018.87 1018.73 1018.70 1018.81 1018.55 1018.87 1019.02 1019.05 1018.80 1018.65 1018.56 1018.37 1018.24 1018.19 1018.75 1019.20 1019.25 1019.11 1019.15 1019.58 1019.84 1020.08 1019.51
1017.72 1018.07 1018.38 1018.66 1018.90 1018.99 1019.17 1019.21 1019.30 1019.15 1019.13 1019.15 1019.30 1019.55 1019.45 1019.14 1019.04 1018.87 1018.78 1018.77 1018.83 1018.99 1018.86 1018.76 1018.83 1019.09 1019.21 1018.82 1018.75 1018.52 1018.38 1018.37 1018.20 1017.97 1018.04 1018.65 1018.65 1018.57 1018.65 1018.82 1019.15 1019.57 1019.42
1017.51 1017.75 1018.18 1018.56 1018.80 1018.97 1019.10 1019.22 1019.24 1019.30 1019.37 1019.44 1019.39 1019.41 1019.57 1019.28 1019.15 1018.85 1018.67 1018.64 1018.73 1018.88 1018.85 1018.89 1019.05 1019.03 1018.90 1018.95 1018.61 1018.48 1018.36 1018.18 1018.05 1017.94 1017.79 1017.63 1018.15 1018.18 1018.13 1018.43 1018.56 1018.68 1018.70
1017.32 1017.65 1017.97 1018.37 1018.65 1018.97 1019.10 1019.14 1019.09 1019.21 1019.18 1019.44 1019.43 1019.49 1019.68 1019.45 1019.20 1019.15 1018.93 1018.78 1018.82 1018.93 1018.89 1018.91 1018.95 1018.86 1018.67 1018.59 1018.60 1018.29 1018.29 1018.14 1017.81 1017.68 1017.57 1017.52 1017.40 1017.67 1017.83 1017.99 1018.12 1017.91 1018.05
1017.28 1017.75 1018.05 1018.13 1018.38 1018.72 1018.94 1019.07 1019.02 1018.99 1019.15 1019.23 1019.36 1019.40 1019.48 1019.52 1019.28 1019.05 1018.85 1018.80 1018.96 1019.04 1018.92 1018.74 1018.72 1018.57 1018.45 1018.36 1018.24 1017.92 1017.70 1017.51 1017.43 1017.28 1017.14 1016.99 1017.10 1016.85 1016.90 1017.20 1017.69 1017.37 1017.40
1017.11 1017.56 1017.90 1018.18 1018.26 1018.44 1018.74 1018.90 1018.97 1018.95 1018.95 1018.97 1019.09 1019.01 1019.10 1019.31 1019.21 1019.12 1018.89 1018.80 1018.98 1018.92 1018.85 1018.71 1018.62 1018.66 1018.23 1017.99 1017.65 1017.40 1017.29 1017.05 1016.80 1016.80 1016.96 1016.81 1016.73 1016.59 1016.35 1016.53 1016.76 1016.93 1016.96
1016.93 1017.50 1017.86 1018.07 1018.16 1018.55 1018.68 1019.15 1018.92 1018.75 1018.88 1018.94 1018.91 1018.95 1019.02 1018.81 1019.10 1019.19 1019.00 1018.97 1018.97 1018.86 1018.90 1018.90 1018.93 1018.73 1018.65 1018.30 1017.72 1017.25 1017.01 1016.74 1016.50 1016.71 1016.67 1016.39 1016.34 1016.28 1016.12 1016.17 1015.97 1015.84 1016.29
1016.68 1017.20 1017.58 1018.02 1018.28 1018.58 1018.75 1018.77 1018.79 1018.58 1018.69 1018.93 1019.04 1019.15 1019.12 1019.19 1019.07 1019.06 1018.96 1018.97 1018.95 1018.98 1019.00 1019.01 1018.87 1018.73 1018.41 1018.49 1017.97 1017.24 1016.90 1016.65 1016.41 1016.52 1016.31 1016.19 1016.03 1015.95 1016.06 1015.94 1015.74 1015.48 1015.31
1015.96 1016.56 1017.09 1017.48 1018.02 1018.53 1018.63 1018.60 1018.58 1018.58 1018.84 1019.07 1019.16 1019.23 1019.27 1019.35 1019.41 1019.40 1019.45 1019.39 1019.36 1019.06 1019.05 1019.08 1019.01 1018.76 1018.56 1018.64 1018.16 1017.67 1016.80 1016.50 1016.53 1016.46 1016.37 1016.22 1016.05 1015.94 1015.66 1015.54 1015.68 1015.57 1015.25
1015.47 1015.92 1016.57 1017.07 1017.66 1018.17 1018.47 1018.77 1018.80 1018.83 1018.99 1019.13 1019.32 1019.43 1019.40 1019.46 1019.58 1019.68 1019.71 1019.64 1019.50 1019.33 1019.36 1019.44 1019.33 1018.80 1018.80 1018.84 1018.88 1018.50 1017.45 1016.85 1017.00 1016.35 1016.56 1016.54 1016.65 1016.39 1015.96 1015.57 1015.34 1015.31 1015.20
1014.41 1015.24 1015.91 1016.61 1017.24 1017.80 1018.34 1018.53 1018.64 1018.54 1018.67 1018.77 1019.16 1019.65 1019.61 1019.76 1019.89 1020.02 1019.97 1019.72 1019.56 1019.48 1019.57 1019.45 1019.42 1019.30 1018.99 1018.95 1018.95 1018.94 1018.91 1018.82 1018.30 1016.96 1016.57 1016.49 1016.71 1016.42 1016.20 1015.77 1015.38 1015.08 1015.04
1014.01 1014.52 1015.28 1016.09 1016.66 1017.23 1017.76 1018.04 1018.26 1018.46 1018.49 1018.97 1019.69 1019.85 1020.12 1020.23 1020.25 1020.39 1020.65 1020.40 1020.08 1019.87 1019.91 1019.88 1019.93 1019.89 1019.76 1019.70 1019.81 1019.53 1019.21 1019.01 1019.02 1018.71 1017.24 1016.66 1016.63 1016.18 1016.02 1015.98 1015.30 1014.85 1014.67
1013.70 1014.38 1014.92 1015.60 1016.23 1016.97 1017.36 1017.77 1018.06 1018.19 1018.58 1019.28 1019.92 1020.22 1020.71 1021.02 1021.18 1021.48 1021.33 1021.07 1021.03 1020.75 1020.62 1020.55 1020.46 1020.54 1020.61 1020.69 1020.61 1020.40 1020.17 1019.89 1019.68 1019.39 1018.58 1017.85 1016.99 1016.14 1016.28 1015.95 1015.84 1014.94 1014.69
Wind_Speed
3 3 2 5 7 9 11 11 11 11 11 11 11 13 11 12 12 12 11 11 14 13 13 14 12 13 13 13 12 14 13 13 12 12 12 11 13 11 13 11 10 13 12
7 5 5 7 9 10 11 10 11 11 12 12 10 12 13 12 12 12 14 13 13 13 13 13 13 13 12 12 12 12 13 11 12 11 11 11 11 10 10 10 8 12 12
8 7 7 7 10 11 10 10 11 11 11 11 11 12 11 12 12 12 12 13 13 13 13 12 12 12 11 11 11 12 11 11 11 11 5 7 10 8 8 10 9 10 12
8 8 7 7 9 9 9 8 9 11 10 10 11 11 10 12 12 11 11 12 12 11 11 12 12 12 11 10 9 9 8 9 10 7 5 5 7 9 6 8 8 9 10
8 7 8 9 9 10 8 9 8 9 9 9 11 11 10 11 11 10 11 11 10 9 10 10 10 10 9 7 7 6 4 2 2 0 5 5 4 8 6 6 7 8 4
8 6 9 9 9 9 9 8 7 8 9 9 9 10 10 10 10 10 9 8 7 7 8 7 8 7 6 5 6 4 4 2 4 4 4 7 4 6 5 6 6 5 5
8 6 6 8 9 8 7 7 7 8 9 8 9 10 10 9 8 9 8 7 7 7 6 6 6 5 5 5 4 3 4 6 5 2 5 3 6 4 4 4 5 3 2
8 7 5 9 7 6 5 7 8 8 8 8 8 8 8 7 7 7 7 6 7 6 5 6 6 5 3 3 1 1 3 2 4 5 4 3 7 3 4 3 5 3 3
7 6 6 6 6 3 6 12 10 8 8 8 7 7 5 4 4 5 4 4 6 5 5 4 4 4 3 3 4 4 3 3 1 4 5 4 4 1 1 2 4 2 2
6 6 5 5 4 5 6 8 8 8 8 7 6 6 5 3 2 3 4 5 4 4 4 4 3 3 3 5 6 6 5 5 1 2 4 5 8 6 4 1 3 2 3
5 5 4 5 4 5 6 7 7 8 8 7 6 6 5 3 3 3 1 3 4 4 4 4 4 3 3 3 5 6 6 2 2 2 3 10 10 10 5 4 3 0 5
8 7 5 5 6 6 5 5 5 5 3 3 4 3 2 1 3 4 3 5 5 5 5 5 5 5 5 4 2 3 3 4 2 2 3 11 10 8 7 5 5 4 8
8 6 8 7 6 6 4 4 2 2 2 2 4 3 2 3 4 4 3 4 4 4 3 4 5 4 2 4 4 4 4 4 3 2 7 10 11 10 9 8 8 3 13
9 9 9 7 6 5 3 3 3 2 1 0 1 3 1 1 2 3 3 3 2 2 4 4 3 2 4 5 6 4 4 3 2 2 6 6 12 14 15 15 17 14 13
10 9 9 7 6 5 4 2 2 2 2 1 0 1 1 1 2 1 1 1 0 1 3 3 3 3 3 5 5 4 3 3 3 2 1 8 12 13 16 18 22 19 18
11 12 10 9 8 6 4 4 3 2 1 1 2 0 1 3 2 1 3 2 2 1 1 1 2 3 2 4 7 6 3 3 6 5 3 3 8 9 10 14 17 19 22
11 12 12 10 8 7 5 4 4 3 2 2 3 3 4 2 1 1 1 2 2 1 1 1 2 2 3 3 5 4 4 5 5 5 3 3 2 6 9 10 10 17 19
11 12 11 9 10 8 6 5 5 5 4 3 3 3 3 3 2 2 1 2 2 2 2 2 2 2 2 3 4 4 4 4 5 5 5 4 4 3 3 5 7 13 18
12 12 12 11 11 10 7 5 6 6 5 4 3 4 4 4 4 3 3 2 2 2 3 2 2 4 5 6 7 6 6 7 7 5 6 6 6 5 4 3 1 8 14
12 11 11 10 11 7 3 3 4 3 3 3 4 5 6 4 4 3 3 4 2 2 3 2 4 4 5 6 8 9 8 8 6 5 4 5 5 7 5 6 5 2 8
13 12 13 11 10 6 5 5 5 5 4 2 1 3 4 4 4 3 3 3 2 3 3 3 4 4 4 3 6 7 8 6 8 2 5 6 6 6 7 7 5 5 0
17 16 13 14 11 9 7 5 4 3 2 2 3 3 2 2 4 2 2 1 3 4 3 2 3 3 3 3 5 6 6 8 1 9 6 7 6 7 8 7 8 7 6
17 17 15 14 13 11 10 6 3 1 2 3 3 1 3 3 3 4 3 1 2 2 2 2 3 3 2 1 5 4 5 4 10 2 7 6 8 8 8 8 8 7 7
19 16 16 14 11 12 11 9 10 9 6 4 2 3 3 3 4 5 2 2 3 3 3 3 3 2 3 2 1 3 3 4 3 6 4 5 8 9 9 6 9 8 6
16 16 16 15 15 13 11 12 10 11 5 3 3 5 5 6 6 7 5 5 6 4 5 6 6 7 5 4 4 5 3 2 3 4 9 8 9 3 5 11 6 6 6
14 14 14 15 14 12 11 14 14 12 6 6 5 5 5 5 5 7 6 7 5 5 6 6 7 9 7 7 5 4 4 3 5 5 6 11 11 6 11 5 7 5 5
Wind_Direction
173 145 164 120 111 107 103 102 101 103 99 101 103 107 105 98 107 108 107 100 93 90 88 92 92 91 89 93 94 87 89 93 97 99 95 85 92 86 88 98 122 104 102
130 128 129 120 115 103 104 102 105 104 105 104 106 105 102 94 92 85 88 94 96 92 92 85 82 85 87 84 85 87 84 80 77 95 100 94 77 90 94 92 78 95 100
123 124 124 128 110 106 107 106 103 100 99 103 101 100 100 105 93 92 94 93 93 90 90 90 89 90 86 86 84 79 76 75 76 76 80 73 85 90 94 96 95 99 99
119 122 121 101 100 98 96 94 98 104 99 106 104 103 104 99 102 99 97 95 94 94 94 94 92 91 89 85 72 71 76 83 85 82 65 60 87 91 90 98 106 101 102
123 124 124 123 112 109 111 103 109 104 103 99 106 106 106 99 96 91 85 86 92 95 96 95 96 97 96 91 81 62 47 11 358 188 78 67 50 93 97 93 115 119 131
127 127 112 115 110 108 109 106 104 95 110 106 102 104 94 104 92 90 89 87 89 92 94 99 102 103 100 92 73 52 4 301 262 90 95 106 78 86 79 85 75 79 107
133 122 119 127 113 114 110 111 104 92 85 84 82 89 93 88 90 87 84 84 85 87 103 112 109 103 106 92 84 63 52 76 62 125 136 85 89 73 77 67 85 61 106
134 131 129 117 114 118 120 138 113 109 104 95 88 89 91 95 93 90 86 84 82 91 104 116 126 128 122 121 111 44 59 16 74 82 118 80 63 17 122 91 89 65 349
129 130 118 113 119 119 90 132 118 122 112 113 118 105 104 103 101 100 101 105 101 107 119 143 164 173 197 215 226 232 234 160 85 99 107 108 130 280 235 140 134 139 258
128 130 128 119 94 87 120 103 114 117 125 133 129 137 147 142 133 161 174 170 143 141 149 167 201 223 262 282 279 273 259 221 269 133 111 107 160 198 212 60 59 326 258
147 148 147 138 120 116 110 121 136 134 146 151 153 176 164 151 164 201 117 221 186 183 199 211 227 254 339 319 322 325 293 309 302 176 132 143 185 195 219 157 117 281 305
165 163 159 151 141 136 132 132 131 133 143 158 171 187 190 177 227 253 247 260 251 225 224 260 272 290 266 353 348 283 314 334 306 112 120 168 200 188 197 100 335 285 281
171 172 168 159 161 157 144 155 151 161 202 225 241 232 276 261 232 234 234 232 235 219 248 251 235 234 295 343 339 342 323 328 2 63 104 174 196 200 185 178 190 156 241
176 177 168 168 173 172 162 180 158 185 171 180 105 143 115 284 215 210 230 219 224 281 267 269 257 322 328 311 291 331 294 330 350 31 118 183 191 203 204 192 195 198 255
179 180 179 183 190 183 191 193 249 206 200 173 276 123 355 78 67 227 189 196 211 234 283 296 321 340 316 308 321 315 343 313 311 332 284 185 218 207 201 203 199 202 217
182 184 181 198 202 201 208 207 226 223 237 311 311 106 350 338 333 218 172 170 212 242 136 257 325 317 340 311 306 297 324 294 298 316 302 283 230 224 221 209 215 216 213
189 188 192 200 206 215 227 242 245 239 214 251 295 270 193 246 19 340 33 10 356 278 214 222 299 282 316 317 294 307 306 316 311 322 321 6 7 245 248 233 226 224 222
191 194 199 202 203 216 233 254 256 246 230 238 259 285 278 226 233 212 269 291 353 253 257 260 301 304 292 304 321 325 324 317 335 335 341 356 19 350 198 229 207 222 224
201 197 200 204 213 214 231 258 247 243 231 246 235 229 231 211 212 245 256 258 264 241 248 274 314 328 329 332 320 325 331 331 340 350 2 356 13 -0 3 51 243 215 229
213 210 211 210 213 217 217 220 238 226 245 233 226 231 232 219 196 230 281 284 257 241 259 296 316 324 316 324 319 323 324 329 347 358 20 344 358 359 4 -0 342 75 211
215 213 213 214 226 199 190 210 220 226 206 189 318 288 237 262 259 208 229 262 249 247 269 256 291 309 312 339 301 321 315 325 333 16 334 336 334 340 329 334 315 330 3
212 216 212 214 207 207 209 210 235 233 202 162 141 132 131 111 58 29 17 10 341 279 245 290 267 290 288 8 324 300 313 317 19 328 336 326 353 329 325 323 324 313 309
217 210 208 211 209 207 209 216 228 208 191 184 162 132 41 64 76 81 74 109 50 25 64 58 333 300 260 127 0 314 313 318 334 11 338 341 349 339 332 328 318 321 311
217 213 208 202 194 206 203 216 224 234 220 206 169 141 82 82 94 95 93 102 77 73 72 79 63 37 344 25 195 18 346 325 330 312 332 328 336 326 340 339 323 315 320
210 209 208 203 199 196 197 214 214 225 224 133 126 118 103 73 58 64 75 84 78 72 68 67 56 46 50 46 24 351 7 21 10 311 309 328 322 331 306 326 315 326 341
207 207 205 200 201 193 192 206 213 217 194 151 159 153 115 80 52 38 50 52 54 67 62 72 71 63 60 52 40 38 29 358 356 336 312 319 314 316 314 300 319 319 329